Time,TemperatureF,DewpointF,PressureIn,WindDirection,WindDirectionDegrees,WindSpeedMPH,WindSpeedGustMPH,Humidity,HourlyPrecipIn,Conditions,Clouds,dailyrainin,SoftwareType,DateUTC
2013-04-11 00:02:00,38.0,35.0,29.80,North,-999,-999.0,-999.0,88,-99.99,,,-99.99,,2013-04-11 05:02:00,
2013-04-11 00:13:00,38.0,35.0,29.79,North,-999,-999.0,-999.0,88,-99.99,,,-99.99,,2013-04-11 05:13:00,
2013-04-11 00:22:00,38.0,35.0,29.79,North,-999,-999.0,-999.0,88,-99.99,,,-99.99,,2013-04-11 05:22:00,
2013-04-11 00:32:00,38.0,35.0,29.79,North,-999,-999.0,-999.0,88,-99.99,,,-99.99,,2013-04-11 05:32:00,
2013-04-11 00:42:00,38.0,35.0,29.79,North,-999,-999.0,-999.0,88,-99.99,,,-99.99,,2013-04-11 05:42:00,
2013-04-11 00:52:00,38.0,35.0,29.79,North,-999,-999.0,-999.0,88,-99.99,,,-99.99,,2013-04-11 05:52:00,
2013-04-11 01:02:00,38.0,35.0,29.78,North,-999,-999.0,-999.0,89,-99.99,,,-99.99,,2013-04-11 06:02:00,
2013-04-11 01:12:00,38.0,35.0,29.80,North,-999,-999.0,-999.0,89,-99.99,,,-99.99,,2013-04-11 06:12:00,
2013-04-11 01:22:00,38.0,35.0,29.80,North,-999,-999.0,-999.0,89,-99.99,,,-99.99,,2013-04-11 06:22:00,
2013-04-11 01:32:00,37.0,34.0,29.78,North,-999,-999.0,-999.0,88,-99.99,,,-99.99,,2013-04-11 06:32:00,
2013-04-11 01:42:00,37.0,33.0,29.78,North,-999,-999.0,-999.0,88,-99.99,,,-99.99,,2013-04-11 06:42:00,
2013-04-11 01:52:00,37.0,33.0,29.78,North,-999,-999.0,-999.0,88,-99.99,,,-99.99,,2013-04-11 06:52:00,
2013-04-11 02:02:00,37.0,34.0,29.78,North,-999,-999.0,-999.0,88,-99.99,,,-99.99,,2013-04-11 07:02:00,
2013-04-11 02:12:00,37.0,33.0,29.78,North,-999,-999.0,-999.0,88,-99.99,,,-99.99,,2013-04-11 07:12:00,
2013-04-11 02:22:00,37.0,33.0,29.78,North,-999,-999.0,-999.0,88,-99.99,,,-99.99,,2013-04-11 07:22:00,
2013-04-11 02:32:00,36.0,33.0,29.78,North,-999,-999.0,-999.0,88,-99.99,,,-99.99,,2013-04-11 07:32:00,
2013-04-11 02:42:00,35.0,32.0,29.78,North,-999,-999.0,-999.0,88,-99.99,,,-99.99,,2013-04-11 07:42:00,
2013-04-11 02:52:00,35.0,32.0,29.78,North,-999,-999.0,-999.0,88,-99.99,,,-99.99,,2013-04-11 07:52:00,
2013-04-11 03:03:00,35.0,32.0,29.76,North,-999,-999.0,-999.0,88,-99.99,,,-99.99,,2013-04-11 08:03:00,
2013-04-11 03:12:00,35.0,32.0,29.78,North,-999,-999.0,-999.0,88,-99.99,,,-99.99,,2013-04-11 08:12:00,
2013-04-11 03:22:00,35.0,32.0,29.77,North,-999,-999.0,-999.0,88,-99.99,,,-99.99,,2013-04-11 08:22:00,
2013-04-11 03:32:00,35.0,32.0,29.77,North,-999,-999.0,-999.0,88,-99.99,,,-99.99,,2013-04-11 08:32:00,
2013-04-11 03:42:00,35.0,32.0,29.77,North,-999,-999.0,-999.0,88,-99.99,,,-99.99,,2013-04-11 08:42:00,
2013-04-11 03:50:00,35.0,32.0,29.76,North,-999,-999.0,-999.0,88,-99.99,,,-99.99,,2013-04-11 08:50:00,
2013-04-11 03:52:00,35.0,32.0,29.77,North,-999,-999.0,-999.0,88,-99.99,,,-99.99,,2013-04-11 08:52:00,
2013-04-11 04:02:00,35.0,32.0,29.77,North,-999,-999.0,-999.0,88,-99.99,,,-99.99,,2013-04-11 09:02:00,
2013-04-11 04:12:00,35.0,32.0,29.76,North,-999,-999.0,-999.0,88,-99.99,,,-99.99,,2013-04-11 09:12:00,
2013-04-11 04:22:00,35.0,32.0,29.76,North,-999,-999.0,-999.0,88,-99.99,,,-99.99,,2013-04-11 09:22:00,
2013-04-11 04:33:00,35.0,32.0,29.76,North,-999,-999.0,-999.0,88,-99.99,,,-99.99,,2013-04-11 09:33:00,
2013-04-11 04:43:00,35.0,32.0,29.76,North,-999,-999.0,-999.0,88,-99.99,,,-99.99,,2013-04-11 09:43:00,
2013-04-11 04:50:00,35.0,32.0,29.78,North,-999,-999.0,-999.0,88,-99.99,,,-99.99,,2013-04-11 09:50:00,
2013-04-11 05:02:00,34.0,31.0,29.75,North,-999,-999.0,-999.0,88,-99.99,,,-99.99,,2013-04-11 10:02:00,
2013-04-11 05:12:00,35.0,31.0,29.75,North,-999,-999.0,-999.0,88,-99.99,,,-99.99,,2013-04-11 10:12:00,
2013-04-11 05:23:00,35.0,31.0,29.75,North,-999,-999.0,-999.0,88,-99.99,,,-99.99,,2013-04-11 10:23:00,
2013-04-11 05:32:00,35.0,32.0,29.78,North,-999,-999.0,-999.0,88,-99.99,,,-99.99,,2013-04-11 10:32:00,
2013-04-11 05:42:00,35.0,32.0,29.78,North,-999,-999.0,-999.0,88,-99.99,,,-99.99,,2013-04-11 10:42:00,
2013-04-11 06:12:00,34.0,30.0,29.73,North,-999,-999.0,-999.0,87,-99.99,,,-99.99,,2013-04-11 11:12:00,
2013-04-11 06:23:00,34.0,30.0,29.75,North,-999,-999.0,-999.0,86,-99.99,,,-99.99,,2013-04-11 11:23:00,
2013-04-11 06:32:00,34.0,30.0,29.75,North,-999,-999.0,-999.0,86,-99.99,,,-99.99,,2013-04-11 11:32:00,
2013-04-11 06:42:00,34.0,30.0,29.77,North,-999,-999.0,-999.0,85,-99.99,,,-99.99,,2013-04-11 11:42:00,
2013-04-11 06:52:00,34.0,30.0,29.77,North,-999,-999.0,-999.0,85,-99.99,,,-99.99,,2013-04-11 11:52:00,
2013-04-11 07:02:00,34.0,30.0,29.77,North,-999,-999.0,-999.0,85,-99.99,,,-99.99,,2013-04-11 12:02:00,
2013-04-11 07:12:00,34.0,30.0,29.78,North,-999,-999.0,-999.0,83,-99.99,,,-99.99,,2013-04-11 12:12:00,
2013-04-11 07:22:00,34.0,30.0,29.78,North,-999,-999.0,-999.0,83,-99.99,,,-99.99,,2013-04-11 12:22:00,
2013-04-11 07:32:00,35.0,30.0,29.78,North,-999,-999.0,-999.0,84,-99.99,,,-99.99,,2013-04-11 12:32:00,
2013-04-11 07:42:00,34.0,29.0,29.74,North,-999,-999.0,-999.0,84,-99.99,,,-99.99,,2013-04-11 12:42:00,
2013-04-11 07:52:00,34.0,29.0,29.74,North,-999,-999.0,-999.0,84,-99.99,,,-99.99,,2013-04-11 12:52:00,
2013-04-11 08:02:00,34.0,30.0,29.75,North,-999,-999.0,-999.0,85,-99.99,,,-99.99,,2013-04-11 13:02:00,
2013-04-11 08:12:00,34.0,30.0,29.74,North,-999,-999.0,-999.0,85,-99.99,,,-99.99,,2013-04-11 13:12:00,
2013-04-11 08:23:00,34.0,30.0,29.74,North,-999,-999.0,-999.0,85,-99.99,,,-99.99,,2013-04-11 13:23:00,
2013-04-11 08:32:00,34.0,30.0,29.72,North,-999,-999.0,-999.0,84,-99.99,,,-99.99,,2013-04-11 13:32:00,
2013-04-11 08:43:00,35.0,30.0,29.73,North,-999,-999.0,-999.0,83,-99.99,,,-99.99,,2013-04-11 13:43:00,
2013-04-11 08:53:00,35.0,30.0,29.73,North,-999,-999.0,-999.0,83,-99.99,,,-99.99,,2013-04-11 13:53:00,
2013-04-11 09:02:00,35.0,30.0,29.76,North,-999,-999.0,-999.0,80,-99.99,,,-99.99,,2013-04-11 14:02:00,
2013-04-11 09:12:00,36.0,30.0,29.75,North,-999,-999.0,-999.0,80,-99.99,,,-99.99,,2013-04-11 14:12:00,
2013-04-11 09:20:00,35.0,30.0,29.75,North,-999,-999.0,-999.0,79,-99.99,,,-99.99,,2013-04-11 14:20:00,
2013-04-11 09:22:00,36.0,30.0,29.75,North,-999,-999.0,-999.0,80,-99.99,,,-99.99,,2013-04-11 14:22:00,
2013-04-11 09:32:00,35.0,29.0,29.77,North,-999,-999.0,-999.0,80,-99.99,,,-99.99,,2013-04-11 14:32:00,
2013-04-11 09:42:00,35.0,29.0,29.76,North,-999,-999.0,-999.0,79,-99.99,,,-99.99,,2013-04-11 14:42:00,
2013-04-11 09:52:00,35.0,29.0,29.76,North,-999,-999.0,-999.0,79,-99.99,,,-99.99,,2013-04-11 14:52:00,
2013-04-11 10:02:00,35.0,30.0,29.75,North,-999,-999.0,-999.0,79,-99.99,,,-99.99,,2013-04-11 15:02:00,
2013-04-11 10:12:00,35.0,30.0,29.75,North,-999,-999.0,-999.0,79,-99.99,,,-99.99,,2013-04-11 15:12:00,
2013-04-11 11:20:00,37.0,30.0,29.77,North,-999,-999.0,-999.0,75,-99.99,,,-99.99,,2013-04-11 16:20:00,
2013-04-11 12:02:00,37.0,30.0,29.77,North,-999,-999.0,-999.0,75,-99.99,,,-99.99,,2013-04-11 17:02:00,
2013-04-11 12:13:00,37.0,30.0,29.77,North,-999,-999.0,-999.0,75,-99.99,,,-99.99,,2013-04-11 17:13:00,
2013-04-11 12:33:00,38.0,30.0,29.77,North,-999,-999.0,-999.0,73,-99.99,,,-99.99,,2013-04-11 17:33:00,
2013-04-11 12:43:00,37.0,29.0,29.78,North,-999,-999.0,-999.0,71,-99.99,,,-99.99,,2013-04-11 17:43:00,
2013-04-11 12:52:00,37.0,29.0,29.78,North,-999,-999.0,-999.0,71,-99.99,,,-99.99,,2013-04-11 17:52:00,
2013-04-11 13:00:00,42.0,30.0,29.76,North,-999,-999.0,-999.0,61,-99.99,,,-99.99,,2013-04-11 18:00:00,
2013-04-11 13:03:00,40.0,29.0,29.77,North,-999,-999.0,-999.0,66,-99.99,,,-99.99,,2013-04-11 18:03:00,
2013-04-11 13:13:00,43.0,34.0,29.76,North,-999,-999.0,-999.0,72,-99.99,,,-99.99,,2013-04-11 18:13:00,
2013-04-11 13:23:00,43.0,34.0,29.76,North,-999,-999.0,-999.0,72,-99.99,,,-99.99,,2013-04-11 18:23:00,
2013-04-11 13:33:00,42.0,32.0,29.76,North,-999,-999.0,-999.0,65,-99.99,,,-99.99,,2013-04-11 18:33:00,
2013-04-11 13:42:00,42.0,30.0,29.76,North,-999,-999.0,-999.0,61,-99.99,,,-99.99,,2013-04-11 18:42:00,
2013-04-11 13:52:00,42.0,30.0,29.76,North,-999,-999.0,-999.0,61,-99.99,,,-99.99,,2013-04-11 18:52:00,
2013-04-11 14:00:00,44.0,29.0,29.74,North,-999,-999.0,-999.0,54,-99.99,,,-99.99,,2013-04-11 19:00:00,
2013-04-11 14:14:00,44.0,33.0,29.75,North,-999,-999.0,-999.0,63,-99.99,,,-99.99,,2013-04-11 19:14:00,
2013-04-11 14:22:00,44.0,33.0,29.75,North,-999,-999.0,-999.0,63,-99.99,,,-99.99,,2013-04-11 19:22:00,
2013-04-11 14:32:00,44.0,31.0,29.74,North,-999,-999.0,-999.0,60,-99.99,,,-99.99,,2013-04-11 19:32:00,
2013-04-11 14:43:00,44.0,29.0,29.74,North,-999,-999.0,-999.0,54,-99.99,,,-99.99,,2013-04-11 19:43:00,
2013-04-11 14:52:00,44.0,29.0,29.74,North,-999,-999.0,-999.0,54,-99.99,,,-99.99,,2013-04-11 19:52:00,
2013-04-11 15:13:00,47.0,31.0,29.74,North,-999,-999.0,-999.0,54,-99.99,,,-99.99,,2013-04-11 20:13:00,
2013-04-11 15:22:00,47.0,31.0,29.74,North,-999,-999.0,-999.0,54,-99.99,,,-99.99,,2013-04-11 20:22:00,
2013-04-11 15:33:00,46.0,31.0,29.73,North,-999,-999.0,-999.0,54,-99.99,,,-99.99,,2013-04-11 20:33:00,
2013-04-11 15:42:00,48.0,31.0,29.73,North,-999,-999.0,-999.0,51,-99.99,,,-99.99,,2013-04-11 20:42:00,
2013-04-11 15:52:00,48.0,31.0,29.73,North,-999,-999.0,-999.0,51,-99.99,,,-99.99,,2013-04-11 20:52:00,
2013-04-11 16:03:00,47.0,30.0,29.72,North,-999,-999.0,-999.0,51,-99.99,,,-99.99,,2013-04-11 21:03:00,
2013-04-11 16:12:00,48.0,31.0,29.72,North,-999,-999.0,-999.0,53,-99.99,,,-99.99,,2013-04-11 21:12:00,
2013-04-11 16:22:00,48.0,31.0,29.72,North,-999,-999.0,-999.0,53,-99.99,,,-99.99,,2013-04-11 21:22:00,
2013-04-11 16:33:00,47.0,30.0,29.71,North,-999,-999.0,-999.0,51,-99.99,,,-99.99,,2013-04-11 21:33:00,
2013-04-11 16:42:00,47.0,30.0,29.71,North,-999,-999.0,-999.0,50,-99.99,,,-99.99,,2013-04-11 21:42:00,
2013-04-11 16:53:00,47.0,30.0,29.71,North,-999,-999.0,-999.0,50,-99.99,,,-99.99,,2013-04-11 21:53:00,
2013-04-11 17:03:00,47.0,32.0,29.70,North,-999,-999.0,-999.0,55,-99.99,,,-99.99,,2013-04-11 22:03:00,
2013-04-11 17:13:00,46.0,29.0,29.70,North,-999,-999.0,-999.0,52,-99.99,,,-99.99,,2013-04-11 22:13:00,
2013-04-11 17:23:00,46.0,29.0,29.70,North,-999,-999.0,-999.0,52,-99.99,,,-99.99,,2013-04-11 22:23:00,
2013-04-11 17:33:00,50.0,32.0,29.70,North,-999,-999.0,-999.0,49,-99.99,,,-99.99,,2013-04-11 22:33:00,
2013-04-11 17:44:00,49.0,31.0,29.70,North,-999,-999.0,-999.0,50,-99.99,,,-99.99,,2013-04-11 22:44:00,
2013-04-11 17:52:00,49.0,31.0,29.70,North,-999,-999.0,-999.0,50,-99.99,,,-99.99,,2013-04-11 22:52:00,
2013-04-11 18:03:00,49.0,33.0,29.71,North,-999,-999.0,-999.0,54,-99.99,,,-99.99,,2013-04-11 23:03:00,
2013-04-11 18:13:00,48.0,31.0,29.71,North,-999,-999.0,-999.0,51,-99.99,,,-99.99,,2013-04-11 23:13:00,
2013-04-11 18:23:00,48.0,31.0,29.71,North,-999,-999.0,-999.0,51,-99.99,,,-99.99,,2013-04-11 23:23:00,
2013-04-11 18:32:00,47.0,30.0,29.71,North,-999,-999.0,-999.0,51,-99.99,,,-99.99,,2013-04-11 23:32:00,
2013-04-11 18:42:00,48.0,31.0,29.72,North,-999,-999.0,-999.0,52,-99.99,,,-99.99,,2013-04-11 23:42:00,
2013-04-11 18:53:00,48.0,31.0,29.72,North,-999,-999.0,-999.0,52,-99.99,,,-99.99,,2013-04-11 23:53:00,
2013-04-11 19:02:00,47.0,29.0,29.71,North,-999,-999.0,-999.0,50,-99.99,,,-99.99,,2013-04-12 00:02:00,
2013-04-11 19:12:00,46.0,29.0,29.71,North,-999,-999.0,-999.0,50,-99.99,,,-99.99,,2013-04-12 00:12:00,
2013-04-11 19:22:00,46.0,29.0,29.71,North,-999,-999.0,-999.0,50,-99.99,,,-99.99,,2013-04-12 00:22:00,
2013-04-11 19:32:00,45.0,30.0,29.72,North,-999,-999.0,-999.0,55,-99.99,,,-99.99,,2013-04-12 00:32:00,
2013-04-11 19:42:00,45.0,29.0,29.72,North,-999,-999.0,-999.0,54,-99.99,,,-99.99,,2013-04-12 00:42:00,
2013-04-11 19:52:00,45.0,29.0,29.72,North,-999,-999.0,-999.0,54,-99.99,,,-99.99,,2013-04-12 00:52:00,
2013-04-11 20:02:00,44.0,29.0,29.73,North,-999,-999.0,-999.0,56,-99.99,,,-99.99,,2013-04-12 01:02:00,
2013-04-11 20:12:00,44.0,30.0,29.73,North,-999,-999.0,-999.0,58,-99.99,,,-99.99,,2013-04-12 01:12:00,
2013-04-11 20:22:00,44.0,30.0,29.73,North,-999,-999.0,-999.0,58,-99.99,,,-99.99,,2013-04-12 01:22:00,
2013-04-11 20:32:00,44.0,30.0,29.73,North,-999,-999.0,-999.0,57,-99.99,,,-99.99,,2013-04-12 01:32:00,
2013-04-11 20:42:00,43.0,29.0,29.74,North,-999,-999.0,-999.0,59,-99.99,,,-99.99,,2013-04-12 01:42:00,
2013-04-11 20:52:00,43.0,29.0,29.74,North,-999,-999.0,-999.0,59,-99.99,,,-99.99,,2013-04-12 01:52:00,
2013-04-11 21:03:00,43.0,30.0,29.74,North,-999,-999.0,-999.0,60,-99.99,,,-99.99,,2013-04-12 02:03:00,
2013-04-11 21:12:00,42.0,30.0,29.75,North,-999,-999.0,-999.0,63,-99.99,,,-99.99,,2013-04-12 02:12:00,
2013-04-11 21:22:00,42.0,30.0,29.75,North,-999,-999.0,-999.0,63,-99.99,,,-99.99,,2013-04-12 02:22:00,
2013-04-11 21:32:00,41.0,30.0,29.75,North,-999,-999.0,-999.0,65,-99.99,,,-99.99,,2013-04-12 02:32:00,
2013-04-11 21:42:00,40.0,30.0,29.75,North,-999,-999.0,-999.0,66,-99.99,,,-99.99,,2013-04-12 02:42:00,
2013-04-11 21:52:00,40.0,30.0,29.75,North,-999,-999.0,-999.0,66,-99.99,,,-99.99,,2013-04-12 02:52:00,
2013-04-11 22:00:00,41.0,30.0,29.75,North,-999,-999.0,-999.0,65,-99.99,,,-99.99,,2013-04-12 03:00:00,
2013-04-11 22:02:00,40.0,30.0,29.75,North,-999,-999.0,-999.0,68,-99.99,,,-99.99,,2013-04-12 03:02:00,
2013-04-11 22:12:00,40.0,30.0,29.76,North,-999,-999.0,-999.0,68,-99.99,,,-99.99,,2013-04-12 03:12:00,
2013-04-11 22:22:00,40.0,30.0,29.76,North,-999,-999.0,-999.0,68,-99.99,,,-99.99,,2013-04-12 03:22:00,
2013-04-11 22:33:00,40.0,29.0,29.75,North,-999,-999.0,-999.0,65,-99.99,,,-99.99,,2013-04-12 03:33:00,
2013-04-11 22:43:00,41.0,30.0,29.75,North,-999,-999.0,-999.0,65,-99.99,,,-99.99,,2013-04-12 03:43:00,
2013-04-11 22:52:00,41.0,30.0,29.75,North,-999,-999.0,-999.0,65,-99.99,,,-99.99,,2013-04-12 03:52:00,
2013-04-11 23:13:00,40.0,29.0,29.75,North,-999,-999.0,-999.0,65,-99.99,,,-99.99,,2013-04-12 04:13:00,
2013-04-11 23:23:00,40.0,29.0,29.75,North,-999,-999.0,-999.0,65,-99.99,,,-99.99,,2013-04-12 04:23:00,
2013-04-11 23:33:00,40.0,29.0,29.75,North,-999,-999.0,-999.0,65,-99.99,,,-99.99,,2013-04-12 04:33:00,
2013-04-11 23:43:00,40.0,29.0,29.75,North,-999,-999.0,-999.0,66,-99.99,,,-99.99,,2013-04-12 04:43:00,
2013-04-11 23:52:00,40.0,29.0,29.75,North,-999,-999.0,-999.0,66,-99.99,,,-99.99,,2013-04-12 04:52:00,